User: anonymous   Login
Location: Drummondville
(45.8830°N, 72.4830°W)
Time: 06:55:07
(UTC-05:00)
Language:

ITUPSAT 1 - Orbit

View from above orbital plane
View from above orbital plane
View from above satellite
View from above satellite

Ground track
Ground track

The orbit data is extracted from the following two-line orbital elements,

1 35935U 09051E   18352.89701662 +.00000058 +00000-0 +24502-4 0  9998
2 35935 098.5808 150.6818 0008399 020.3908 339.7623 14.55491539490164
Epoch (UTC): 18 December 2018 21:31:42
Eccentricity: 0.0008399
inclination: 98.5808°
perigee height: 702 km
apogee height: 714 km
right ascension of ascending node: 150.6818°
argument of perigee: 20.3908°
revolutions per day: 14.55491539
mean anomaly at epoch: 339.7623°
orbit number at epoch: 49016

The dashed part of the orbit path shows where the satellite is in the earth's shadow,  

DLR